Weather History for Branson West Muni - Emerson F, MO

Change the Weather History Date:

Friday, May 16, 2014

  Actual Average (KHRO) Record (KHRO)
Temperature  
Mean Temperature 50 °F 66 °F  
Max Temperature 62 °F 76 °F 90 °F (1928)
Min Temperature 39 °F 55 °F 35 °F (1912)
Degree Days  
Heating Degree Days 14 2  
Month to date heating degree days 54  
Since 1 July heating degree days 3975  
Cooling Degree Days 0 3  
Month to date cooling degree days 38  
Year to date cooling degree days 75  
Moisture  
Dew Point 38 °F    
Average Humidity 69    
Maximum Humidity 100    
Minimum Humidity 34    
Precipitation  
Precipitation 0.00 in 0.16 in 2.23 in (1910)
Month to date precipitation 2.61  
Year to date precipitation 15.92  
Snow  
Snow 0.00 in 0.00 in - ()
Month to date snowfall 0.0  
Since 1 July snowfall 11.5  
Snow Depth -    
Sea Level Pressure  
Sea Level Pressure 30.11 in    
Wind  
Wind Speed 2 mph (NW)    
Max Wind Speed 14 mph    
Max Gust Speed 20 mph    
Visibility 9 miles    
Events Fog , Rain    
T = Trace of Precipitation, MM = Missing Value Source: NWS Daily Summary

Daily Weather History Graph

Daily Weather History Graph

Search for Another Location

Airport:

Trip Planner

Search our weather history database for the weather conditions in past years. The results will help you decide how hot, cold, wet, or windy it might be!

Date:

Astronomy

May. 16, 2014 Rise Set
Actual Time 6:05 AM CDT 8:14 PM CDT
Civil Twilight 5:36 AM CDT 8:43 PM CDT
Nautical Twilight 5:01 AM CDT 9:19 PM CDT
Astronomical Twilight 4:22 AM CDT 9:58 PM CDT
Moon 10:22 PM CDT (5/16) 7:47 AM CDT (5/16)
Length of Visible Light 15h 07m
Length of Day
14h 09m
Waning Gibbous, 95% of the Moon is Illuminated
May 16
Waning Gibbous
May 21
Last Quarter
May 28
New
Jun 5
First Quarter
Jun 12
Full

Hourly Weather History & Observations

Time (CDT) Temp. Windchill Dew Point Humidity Pressure Visibility Wind Dir Wind Speed Gust Speed Precip Events Conditions
12:15 AM 42.8 °F - 33.8 °F 70% 30.13 in 10.0 mi Calm Calm - N/A   Clear
12:35 AM 41.0 °F - 33.8 °F 76% 30.13 in 10.0 mi Calm Calm - N/A   Clear
12:55 AM 41.0 °F - 33.8 °F 76% 30.13 in 10.0 mi Calm Calm - N/A   Partly Cloudy
1:15 AM 41.0 °F - 33.8 °F 76% 30.12 in 10.0 mi Calm Calm - N/A   Mostly Cloudy
1:55 AM 39.2 °F - 35.6 °F 87% 30.12 in 10.0 mi Calm Calm - N/A   Mostly Cloudy
2:15 AM 39.2 °F - 35.6 °F 87% 30.11 in 10.0 mi Calm Calm - N/A   Overcast
2:35 AM 39.2 °F - 35.6 °F 87% 30.11 in 10.0 mi Calm Calm - N/A   Mostly Cloudy
2:55 AM 39.2 °F - 35.6 °F 87% 30.11 in 10.0 mi Calm Calm - N/A   Partly Cloudy
3:15 AM 39.2 °F 37.0 °F 37.4 °F 93% 30.11 in 10.0 mi WSW 3.5 mph - N/A   Partly Cloudy
3:35 AM 39.2 °F - 37.4 °F 93% 30.11 in 10.0 mi Calm Calm - N/A   Partly Cloudy
3:55 AM 39.2 °F - 37.4 °F 93% 30.11 in 10.0 mi Calm Calm - N/A   Scattered Clouds
4:15 AM 41.0 °F - 39.2 °F 93% 30.11 in 10.0 mi Calm Calm - N/A   Scattered Clouds
4:35 AM 39.2 °F - 39.2 °F 100% 30.11 in 9.0 mi Calm Calm - N/A   Mostly Cloudy
4:55 AM 39.2 °F - 39.2 °F 100% 30.11 in 10.0 mi Calm Calm - N/A   Scattered Clouds
5:15 AM 39.2 °F - 39.2 °F 100% 30.10 in 10.0 mi Calm Calm - N/A   Scattered Clouds
5:35 AM 39.2 °F - 39.2 °F 100% 30.11 in 9.0 mi Calm Calm - N/A   Scattered Clouds
5:55 AM 39.2 °F - 39.2 °F 100% 30.10 in 6.0 mi Calm Calm - N/A   Partly Cloudy
6:15 AM 39.2 °F - 37.4 °F 93% 30.11 in 4.0 mi Calm Calm - N/A   Mostly Cloudy
6:35 AM 39.2 °F - 37.4 °F 93% 30.12 in 0.2 mi Calm Calm - N/A Fog Fog
6:55 AM 39.2 °F - 39.2 °F 100% 30.12 in 0.2 mi Calm Calm - N/A Fog Fog
7:15 AM 39.2 °F - 37.4 °F 93% 30.12 in 0.2 mi Calm Calm - N/A Fog Fog
7:35 AM 39.2 °F - 39.2 °F 100% 30.13 in 0.2 mi Calm Calm - N/A Fog Fog
7:55 AM 41.0 °F - 41.0 °F 100% 30.13 in 0.2 mi Calm Calm - N/A Fog Fog
8:15 AM 42.8 °F - 42.8 °F 100% 30.13 in 3.0 mi Calm Calm - N/A   Mostly Cloudy
8:35 AM 44.6 °F 42.2 °F 44.6 °F 100% 30.13 in 10.0 mi SW 4.6 mph - N/A   Partly Cloudy
8:55 AM 46.4 °F 45.2 °F 42.8 °F 87% 30.14 in 10.0 mi WSW 3.5 mph - N/A   Clear
9:15 AM 48.2 °F - 41.0 °F 76% 30.14 in 10.0 mi Calm Calm - N/A   Clear
9:35 AM 51.8 °F - 41.0 °F 67% 30.13 in 10.0 mi Calm Calm - N/A   Clear
9:55 AM 53.6 °F - 39.2 °F 58% 30.13 in 10.0 mi Calm Calm - N/A   Clear
10:15 AM 57.2 °F - 33.8 °F 41% 30.13 in 10.0 mi North 5.8 mph - N/A   Clear
10:35 AM 57.2 °F - 32.0 °F 38% 30.13 in 10.0 mi WNW 6.9 mph - N/A   Clear
10:55 AM 57.2 °F - 32.0 °F 38% 30.12 in 10.0 mi North 5.8 mph - N/A   Clear
11:15 AM 57.2 °F - 32.0 °F 38% 30.12 in 10.0 mi NW 8.1 mph - N/A   Clear
11:35 AM 59.0 °F - 35.6 °F 42% 30.12 in 10.0 mi WNW 10.4 mph 18.4 mph N/A   Clear
11:55 AM 59.0 °F - 35.6 °F 42% 30.12 in 10.0 mi NNW 5.8 mph - N/A   Clear
12:15 PM 59.0 °F - 35.6 °F 42% 30.12 in 10.0 mi West 8.1 mph - N/A   Clear
12:35 PM 59.0 °F - 33.8 °F 39% 30.11 in 10.0 mi NW 8.1 mph - N/A   Unknown
12:55 PM 62.6 °F - 35.6 °F 37% 30.10 in 10.0 mi NNW 9.2 mph - N/A   Partly Cloudy
1:15 PM 62.6 °F - 35.6 °F 37% 30.10 in 10.0 mi SW 5.8 mph - N/A   Partly Cloudy
1:35 PM 62.6 °F - 33.8 °F 34% 30.10 in 10.0 mi WNW 8.1 mph - N/A   Partly Cloudy
1:55 PM 62.6 °F - 33.8 °F 34% 30.09 in 10.0 mi NW 13.8 mph - N/A   Partly Cloudy
2:15 PM 62.6 °F - 35.6 °F 37% 30.09 in 10.0 mi North 8.1 mph - N/A   Scattered Clouds
2:35 PM 62.6 °F - 33.8 °F 34% 30.09 in 10.0 mi WNW 10.4 mph - N/A   Mostly Cloudy
2:55 PM 62.6 °F - 35.6 °F 37% 30.10 in 10.0 mi West 5.8 mph - N/A   Overcast
3:15 PM 60.8 °F - 35.6 °F 39% 30.09 in 10.0 mi West 4.6 mph - N/A   Mostly Cloudy
3:35 PM 60.8 °F - 35.6 °F 39% 30.09 in 10.0 mi NW 8.1 mph - N/A   Clear
3:55 PM 60.8 °F - 37.4 °F 42% 30.08 in 10.0 mi West 10.4 mph - N/A   Partly Cloudy
4:15 PM 59.0 °F - 33.8 °F 39% 30.09 in 10.0 mi West 6.9 mph 19.6 mph N/A   Clear
4:35 PM 59.0 °F - 33.8 °F 39% 30.10 in 10.0 mi WNW 10.4 mph 18.4 mph N/A   Partly Cloudy
4:55 PM 57.2 °F - 37.4 °F 48% 30.10 in 10.0 mi West 4.6 mph - N/A   Mostly Cloudy
5:15 PM 55.4 °F - 41.0 °F 58% 30.10 in 8.0 mi WNW 4.6 mph - N/A Rain Light Rain
5:35 PM 53.6 °F - 41.0 °F 62% 30.09 in 10.0 mi NNW 5.8 mph - N/A   Clear
5:55 PM 53.6 °F - 42.8 °F 67% 30.09 in 10.0 mi North 4.6 mph - N/A   Clear
6:15 PM 53.6 °F - 44.6 °F 72% 30.09 in 10.0 mi NNW 4.6 mph - N/A Rain Light Rain
6:35 PM 53.6 °F - 42.8 °F 67% 30.09 in 10.0 mi North 6.9 mph - N/A   Partly Cloudy
6:55 PM 53.6 °F - 44.6 °F 72% 30.08 in 10.0 mi NNE 5.8 mph - N/A   Partly Cloudy
7:15 PM 51.8 °F - 41.0 °F 67% 30.08 in 10.0 mi NNE 10.4 mph - N/A   Mostly Cloudy
7:35 PM 51.8 °F - 41.0 °F 67% 30.09 in 10.0 mi NNE 9.2 mph - N/A   Overcast
7:55 PM 50.0 °F - 41.0 °F 71% 30.09 in 10.0 mi NE 3.5 mph - N/A   Overcast
8:15 PM 50.0 °F - 41.0 °F 71% 30.09 in 10.0 mi Calm Calm - N/A   Overcast
8:35 PM 50.0 °F - 41.0 °F 71% 30.10 in 10.0 mi Calm Calm - N/A   Overcast
8:55 PM 50.0 °F - 41.0 °F 71% 30.10 in 10.0 mi NE 3.5 mph - N/A   Overcast
9:15 PM 50.0 °F - 41.0 °F 71% 30.12 in 10.0 mi North 3.5 mph - N/A   Overcast
9:35 PM 50.0 °F - 41.0 °F 71% 30.12 in 10.0 mi Calm Calm - N/A   Overcast
9:55 PM 50.0 °F - 41.0 °F 71% 30.12 in 10.0 mi Calm Calm - N/A   Overcast
10:15 PM 50.0 °F - 44.6 °F 82% 30.13 in 10.0 mi Calm Calm - N/A   Overcast
10:35 PM 50.0 °F - 41.0 °F 71% 30.15 in 10.0 mi Calm Calm - N/A   Overcast
11:15 PM 48.2 °F - 44.6 °F 87% 30.15 in 10.0 mi Calm Calm - N/A   Overcast
11:35 PM 48.2 °F - 44.6 °F 87% 30.17 in 10.0 mi NNW 3.5 mph - N/A Rain Light Rain
11:55 PM 48.2 °F - 44.6 °F 87% 30.16 in 6.0 mi Calm Calm - N/A Rain Light Rain